Jackson, TN

9:04 AM CDT on September 27, 2016 (GMT -0500)
McKellar-Sipes Regional

Weather History for KMKL - March, 2014

Change the Weather History Date:

Tuesday, March 18, 2014

  Actual Average Record
Temperature  
Mean Temperature 43 °F 52 °F  
Max Temperature 59 °F 63 °F 86 °F (1982)
Min Temperature 27 °F 40 °F 22 °F (1967)
Degree Days  
Heating Degree Days 22 14  
Month to date heating degree days 378 291  
Since 1 July heating degree days 3674 3175  
Cooling Degree Days 0 0  
Month to date cooling degree days 0 0  
Year to date cooling degree days 0 1  
Moisture  
Dew Point 35 °F    
Average Humidity 70    
Maximum Humidity 92    
Minimum Humidity 47    
Precipitation  
Precipitation 0.00 in 0.16 in 2.40 in (1992)
Month to date precipitation 4.02 2.64  
Year to date precipitation 12.18 10.88  
Snow  
Snow 0.00 in 0.00 in T in (1960)
Month to date snowfall 0.8 0.2  
Since 1 July snowfall 1.3 4.4  
Snow Depth 0.00 in    
Sea Level Pressure  
Sea Level Pressure 29.87 in    
Wind  
Wind Speed 7 mph (SSE)    
Max Wind Speed 18 mph    
Max Gust Speed 26 mph    
Visibility 9 miles    
Events      
T = Trace of Precipitation, MM = Missing Value Source: NWS Daily Summary

Daily Weather History Graph

Daily Weather History Graph

Search for Another Location

Airport or City:

Trip Planner

Search our weather history database for the weather conditions in past years. The results will help you decide how hot, cold, wet, or windy it might be!

Date:

Astronomy

Mar. 18, 2014 Rise Set
Actual Time 7:02 AM CDT 7:05 PM CDT
Civil Twilight 6:36 AM CDT 7:31 PM CDT
Nautical Twilight 6:07 AM CDT 8:00 PM CDT
Astronomical Twilight 5:37 AM CDT 8:30 PM CDT
Moon 9:17 PM CDT (3/18) 7:55 AM CDT (3/18)
Length of Visible Light 12h 54m
Length of Day
12h 03m
Waning Gibbous, 96% of the Moon is Illuminated
Mar 18
Waning Gibbous
Mar 23
Last Quarter
Mar 30
New
Apr 7
First Quarter
Apr 15
Full

Hourly Weather History & Observations

Time (CDT) Temp. Windchill Dew Point Humidity Pressure Visibility Wind Dir Wind Speed Gust Speed Precip Events Conditions
12:53 AM 30.9 °F - 28.0 °F 89% 29.86 in 10.0 mi Calm Calm - N/A   Clear
1:53 AM 28.9 °F - 27.0 °F 92% 29.86 in 6.0 mi Calm Calm - N/A   Clear
2:53 AM 30.0 °F - 28.0 °F 92% 29.85 in 9.0 mi Calm Calm - N/A   Clear
3:53 AM 30.0 °F - 28.0 °F 92% 29.82 in 9.0 mi Calm Calm - N/A   Clear
4:53 AM 30.9 °F - 28.0 °F 89% 29.85 in 6.0 mi Calm Calm - N/A   Clear
5:17 AM 28.4 °F - 26.6 °F 93% 29.84 in 8.0 mi Calm Calm - N/A   Mostly Cloudy
5:53 AM 30.0 °F - 28.0 °F 92% 29.86 in 8.0 mi Calm Calm - N/A   Overcast
6:42 AM 28.4 °F - 26.6 °F 93% 29.85 in 4.0 mi Calm Calm - N/A   Partly Cloudy
6:53 AM 28.9 °F - 27.0 °F 92% 29.86 in 4.0 mi Calm Calm - N/A   Partly Cloudy
7:14 AM 26.6 °F 22.6 °F 26.6 °F 100% 29.87 in 3.0 mi SE 3.5 mph - N/A   Clear
7:53 AM 32.0 °F 28.7 °F 30.0 °F 92% 29.89 in 5.0 mi SSE 3.5 mph - N/A   Clear
8:53 AM 39.9 °F 35.8 °F 35.1 °F 83% 29.92 in 10.0 mi SSE 5.8 mph - N/A   Clear
9:53 AM 43.0 °F 37.7 °F 36.0 °F 76% 29.95 in 10.0 mi South 9.2 mph - N/A   Mostly Cloudy
9:54 AM 42.8 °F 38.0 °F 35.6 °F 76% 29.94 in 10.0 mi South 8.1 mph - N/A   Mostly Cloudy
10:07 AM 44.6 °F 40.2 °F 37.4 °F 76% 29.94 in 10.0 mi SSE 8.1 mph 17.3 mph N/A   Scattered Clouds
10:32 AM 44.6 °F 38.4 °F 37.4 °F 76% 29.94 in 10.0 mi South 12.7 mph 24.2 mph N/A   Mostly Cloudy
10:53 AM 45.0 °F 39.7 °F 37.0 °F 74% 29.96 in 10.0 mi SSE 10.4 mph - N/A   Overcast
11:46 AM 48.2 °F - 39.2 °F 71% 29.94 in 10.0 mi SSE 10.4 mph 18.4 mph N/A   Overcast
11:53 AM 48.0 °F - 39.0 °F 71% 29.95 in 10.0 mi SSE 8.1 mph 16.1 mph N/A   Overcast
12:53 PM 51.1 °F - 39.9 °F 66% 29.92 in 10.0 mi SE 5.8 mph - N/A   Mostly Cloudy
1:00 PM 51.8 °F - 39.2 °F 62% 29.90 in 10.0 mi Variable 6.9 mph - N/A   Scattered Clouds
1:39 PM 53.6 °F - 39.2 °F 58% 29.88 in 10.0 mi SSE 9.2 mph 17.3 mph N/A   Mostly Cloudy
1:53 PM 54.0 °F - 39.9 °F 59% 29.88 in 10.0 mi SE 9.2 mph 20.7 mph N/A   Mostly Cloudy
2:28 PM 55.4 °F - 39.2 °F 54% 29.84 in 10.0 mi South 10.4 mph 19.6 mph N/A   Mostly Cloudy
2:53 PM 55.9 °F - 39.9 °F 55% 29.83 in 10.0 mi SSE 10.4 mph 19.6 mph N/A   Scattered Clouds
3:53 PM 57.0 °F - 39.9 °F 53% 29.81 in 10.0 mi SSE 11.5 mph 20.7 mph N/A   Clear
4:53 PM 59.0 °F - 39.9 °F 49% 29.78 in 10.0 mi SSE 9.2 mph 24.2 mph N/A   Clear
5:53 PM 57.9 °F - 39.9 °F 51% 29.78 in 10.0 mi SSE 10.4 mph 17.3 mph N/A   Clear
6:53 PM 55.9 °F - 39.9 °F 55% 29.76 in 10.0 mi SSE 11.5 mph 16.1 mph N/A   Clear
7:53 PM 54.0 °F - 39.9 °F 59% 29.80 in 10.0 mi South 9.2 mph 20.7 mph N/A   Clear
8:53 PM 53.1 °F - 41.0 °F 64% 29.85 in 10.0 mi SSW 10.4 mph 18.4 mph N/A   Clear
9:53 PM 52.0 °F - 41.0 °F 66% 29.86 in 10.0 mi South 12.7 mph 23.0 mph N/A   Clear
10:53 PM 51.1 °F - 41.0 °F 68% 29.87 in 10.0 mi South 12.7 mph 24.2 mph N/A   Clear
11:53 PM 51.1 °F - 41.0 °F 68% 29.88 in 10.0 mi South 15.0 mph 20.7 mph N/A   Clear